Location: Zagreb
(45.8000°N, 16.0000°E)
Time: 23:17:46
(UTC+01:00)

Transit 2A Rocket - Pass Details

Date: 10 October 2020
Orbit: 586 x 916 km, 66.7° (Epoch: 27 October)

Event Time Altitude Azimuth Distance (km) Brightness Sun altitude
Rises 20:34:26 0° 327° (NNW) 3,476 9.1 -24.3°
Reaches altitude 10° 20:39:20 10° 2° (N) 2,458 7.8 -25.1°
Maximum altitude 20:40:48 11° 17° (NNE) 2,363 7.5 -25.4°
Enters shadow 20:41:45 11° 27° (NNE) 2,372 7.4 -25.5°
Drops below altitude 10° 20:42:16 10° 33° (NNE) 2,401 - -25.6°
Sets 20:46:49 0° 69° (ENE) 3,230 - -26.4°
